Year,Month,Day,Hour,Minute,Value (Times are PST for temperature in C)
2011,04,19,00,00,5.20
2011,04,19,00,01,5.20
2011,04,19,00,02,5.20
2011,04,19,00,03,5.20
2011,04,19,00,04,5.10
2011,04,19,00,05,5.10
2011,04,19,00,06,5.10
2011,04,19,00,07,5.10
2011,04,19,00,08,5.10
2011,04,19,00,09,5.10
2011,04,19,00,10,5.10
2011,04,19,00,11,5.10
2011,04,19,00,12,5.00
2011,04,19,00,13,5.00
2011,04,19,00,14,5.00
2011,04,19,00,15,5.00
2011,04,19,00,16,5.00
2011,04,19,00,17,5.00
2011,04,19,00,18,5.00
2011,04,19,00,19,4.90
2011,04,19,00,20,4.90
2011,04,19,00,21,4.90
2011,04,19,00,22,4.90
2011,04,19,00,23,4.90
2011,04,19,00,24,4.90
2011,04,19,00,25,4.90
2011,04,19,00,26,4.90
2011,04,19,00,27,4.90
2011,04,19,00,28,4.90
2011,04,19,00,29,4.90
2011,04,19,00,30,4.90
2011,04,19,00,31,4.90
2011,04,19,00,32,4.90
2011,04,19,00,33,4.90
2011,04,19,00,34,4.90
2011,04,19,00,35,4.90
2011,04,19,00,36,4.90
2011,04,19,00,37,4.80
2011,04,19,00,38,4.80
2011,04,19,00,39,4.80
2011,04,19,00,40,4.80
2011,04,19,00,41,4.80
2011,04,19,00,42,4.80
2011,04,19,00,43,4.80
2011,04,19,00,44,4.80
2011,04,19,00,45,4.80
2011,04,19,00,46,4.80
2011,04,19,00,47,4.80
2011,04,19,00,48,4.80
2011,04,19,00,49,4.80
2011,04,19,00,50,4.80
2011,04,19,00,51,4.70
2011,04,19,00,52,4.70
2011,04,19,00,53,4.70
2011,04,19,00,54,4.70
2011,04,19,00,55,4.70
2011,04,19,00,56,4.70
2011,04,19,00,57,4.70
2011,04,19,00,58,4.70
2011,04,19,00,59,4.60
2011,04,19,01,00,4.60
2011,04,19,01,01,4.60
2011,04,19,01,02,4.60
2011,04,19,01,03,4.50
2011,04,19,01,04,4.50
2011,04,19,01,05,4.50
2011,04,19,01,06,4.40
2011,04,19,01,07,4.40
2011,04,19,01,08,4.40
2011,04,19,01,09,4.40
2011,04,19,01,10,4.40
2011,04,19,01,11,4.40
2011,04,19,01,12,4.40
2011,04,19,01,13,4.40
2011,04,19,01,14,4.30
2011,04,19,01,15,4.30
2011,04,19,01,16,4.30
2011,04,19,01,17,4.30
2011,04,19,01,18,4.30
2011,04,19,01,19,4.30
2011,04,19,01,20,4.20
2011,04,19,01,21,4.20
2011,04,19,01,22,4.20
2011,04,19,01,23,4.20
2011,04,19,01,24,4.20
2011,04,19,01,25,4.20
2011,04,19,01,26,4.20
2011,04,19,01,27,4.20
2011,04,19,01,28,4.20
2011,04,19,01,29,4.20
2011,04,19,01,30,4.20
2011,04,19,01,31,4.20
2011,04,19,01,32,4.20
2011,04,19,01,33,4.20
2011,04,19,01,34,4.20
2011,04,19,01,35,4.20
2011,04,19,01,36,4.20
2011,04,19,01,37,4.20
2011,04,19,01,38,4.20
2011,04,19,01,39,4.20
2011,04,19,01,40,4.20
2011,04,19,01,41,4.20
2011,04,19,01,42,4.20
2011,04,19,01,43,4.20
2011,04,19,01,44,4.20
2011,04,19,01,45,4.20
2011,04,19,01,46,4.20
2011,04,19,01,47,4.20
2011,04,19,01,48,4.20
2011,04,19,01,49,4.20
2011,04,19,01,50,4.20
2011,04,19,01,51,4.20
2011,04,19,01,52,4.20
2011,04,19,01,53,4.20
2011,04,19,01,54,4.20
2011,04,19,01,55,4.20
2011,04,19,01,56,4.10
2011,04,19,01,57,4.10
2011,04,19,01,58,4.10
2011,04,19,01,59,4.10
2011,04,19,02,00,4.10
2011,04,19,02,01,4.10
2011,04,19,02,02,4.10
2011,04,19,02,03,4.10
2011,04,19,02,04,4.10
2011,04,19,02,05,4.00
2011,04,19,02,06,4.00
2011,04,19,02,07,4.00
2011,04,19,02,08,4.00
2011,04,19,02,09,4.00
2011,04,19,02,10,4.00
2011,04,19,02,11,3.90
2011,04,19,02,12,3.90
2011,04,19,02,13,3.90
2011,04,19,02,14,3.90
2011,04,19,02,15,3.90
2011,04,19,02,16,3.90
2011,04,19,02,17,3.80
2011,04,19,02,18,3.80
2011,04,19,02,19,3.80
2011,04,19,02,20,3.80
2011,04,19,02,21,3.80
2011,04,19,02,22,3.70
2011,04,19,02,23,3.70
2011,04,19,02,24,3.70
2011,04,19,02,25,3.70
2011,04,19,02,26,3.70
2011,04,19,02,27,3.60
2011,04,19,02,28,3.60
2011,04,19,02,29,3.60
2011,04,19,02,30,3.60
2011,04,19,02,31,3.60
2011,04,19,02,32,3.60
2011,04,19,02,33,3.50
2011,04,19,02,34,3.50
2011,04,19,02,35,3.50
2011,04,19,02,36,3.50
2011,04,19,02,37,3.50
2011,04,19,02,38,3.50
2011,04,19,02,39,3.50
2011,04,19,02,40,3.50
2011,04,19,02,41,3.50
2011,04,19,02,42,3.60
2011,04,19,02,43,3.50
2011,04,19,02,44,3.50
2011,04,19,02,45,3.60
2011,04,19,02,46,3.60
2011,04,19,02,47,3.60
2011,04,19,02,48,3.60
2011,04,19,02,49,3.60
2011,04,19,02,50,3.60
2011,04,19,02,51,3.60
2011,04,19,02,52,3.60
2011,04,19,02,53,3.60
2011,04,19,02,54,3.60
2011,04,19,02,55,3.60
2011,04,19,02,56,3.60
2011,04,19,02,57,3.60
2011,04,19,02,58,3.60
2011,04,19,02,59,3.60
2011,04,19,03,00,3.60
2011,04,19,03,01,3.50
2011,04,19,03,02,3.50
2011,04,19,03,03,3.40
2011,04,19,03,04,3.40
2011,04,19,03,05,3.40
2011,04,19,03,06,3.40
2011,04,19,03,07,3.40
2011,04,19,03,08,3.30
2011,04,19,03,09,3.30
2011,04,19,03,10,3.30
2011,04,19,03,11,3.30
2011,04,19,03,12,3.20
2011,04,19,03,13,3.20
2011,04,19,03,14,3.10
2011,04,19,03,15,3.10
2011,04,19,03,16,3.10
2011,04,19,03,17,3.00
2011,04,19,03,18,3.00
2011,04,19,03,19,3.00
2011,04,19,03,20,2.90
2011,04,19,03,21,2.90
2011,04,19,03,22,2.90
2011,04,19,03,23,2.90
2011,04,19,03,24,2.90
2011,04,19,03,25,2.90
2011,04,19,03,26,2.90
2011,04,19,03,27,2.90
2011,04,19,03,28,2.90
2011,04,19,03,29,2.90
2011,04,19,03,30,2.90
2011,04,19,03,31,2.90
2011,04,19,03,32,2.90
2011,04,19,03,33,2.90
2011,04,19,03,34,2.90
2011,04,19,03,35,2.90
2011,04,19,03,36,2.90
2011,04,19,03,37,2.90
2011,04,19,03,38,2.80
2011,04,19,03,39,2.90
2011,04,19,03,40,2.90
2011,04,19,03,41,2.90
2011,04,19,03,42,2.90
2011,04,19,03,43,2.90
2011,04,19,03,44,2.90
2011,04,19,03,45,2.90
2011,04,19,03,46,2.90
2011,04,19,03,47,3.00
2011,04,19,03,48,3.00
2011,04,19,03,49,3.10
2011,04,19,03,50,3.10
2011,04,19,03,51,3.20
2011,04,19,03,52,3.20
2011,04,19,03,53,3.30
2011,04,19,03,54,3.30
2011,04,19,03,55,3.30
2011,04,19,03,56,3.40
2011,04,19,03,57,3.40
2011,04,19,03,58,3.40
2011,04,19,03,59,3.40
2011,04,19,04,00,3.40
2011,04,19,04,01,3.40
2011,04,19,04,02,3.40
2011,04,19,04,03,3.40
2011,04,19,04,04,3.40
2011,04,19,04,05,3.40
2011,04,19,04,06,3.50
2011,04,19,04,07,3.50
2011,04,19,04,08,3.50
2011,04,19,04,09,3.50
2011,04,19,04,10,3.50
2011,04,19,04,11,3.50
2011,04,19,04,12,3.60
2011,04,19,04,13,3.60
2011,04,19,04,14,3.60
2011,04,19,04,15,3.70
2011,04,19,04,16,3.70
2011,04,19,04,17,3.70
2011,04,19,04,18,3.80
2011,04,19,04,19,3.80
2011,04,19,04,20,3.90
2011,04,19,04,21,3.90
2011,04,19,04,22,3.90
2011,04,19,04,23,4.00
2011,04,19,04,24,4.10
2011,04,19,04,25,4.10
2011,04,19,04,26,4.10
2011,04,19,04,27,4.10
2011,04,19,04,28,4.20
2011,04,19,04,29,4.20
2011,04,19,04,30,4.20
2011,04,19,04,31,4.20
2011,04,19,04,32,4.20
2011,04,19,04,33,4.20
2011,04,19,04,34,4.20
2011,04,19,04,35,4.30
2011,04,19,04,36,4.30
2011,04,19,04,37,4.30
2011,04,19,04,38,4.30
2011,04,19,04,39,4.30
2011,04,19,04,40,4.30
2011,04,19,04,41,4.30
2011,04,19,04,42,4.30
2011,04,19,04,43,4.30
2011,04,19,04,44,4.30
2011,04,19,04,45,4.30
2011,04,19,04,46,4.30
2011,04,19,04,47,4.30
2011,04,19,04,48,4.30
2011,04,19,04,49,4.20
2011,04,19,04,50,4.20
2011,04,19,04,51,4.20
2011,04,19,04,52,4.10
2011,04,19,04,53,4.10
2011,04,19,04,54,4.10
2011,04,19,04,55,4.00
2011,04,19,04,56,4.00
2011,04,19,04,57,3.90
2011,04,19,04,58,3.90
2011,04,19,04,59,3.90
2011,04,19,05,00,3.80
2011,04,19,05,01,3.80
2011,04,19,05,02,3.70
2011,04,19,05,03,3.70
2011,04,19,05,04,3.60
2011,04,19,05,05,3.60
2011,04,19,05,06,3.60
2011,04,19,05,07,3.60
2011,04,19,05,08,3.60
2011,04,19,05,09,3.60
2011,04,19,05,10,3.60
2011,04,19,05,11,3.60
2011,04,19,05,12,3.60
2011,04,19,05,13,3.60
2011,04,19,05,14,3.60
2011,04,19,05,15,3.60
2011,04,19,05,16,3.60
2011,04,19,05,17,3.60
2011,04,19,05,18,3.60
2011,04,19,05,19,3.60
2011,04,19,05,20,3.70
2011,04,19,05,21,3.70
2011,04,19,05,22,3.70
2011,04,19,05,23,3.70
2011,04,19,05,24,3.70
2011,04,19,05,25,3.70
2011,04,19,05,26,3.70
2011,04,19,05,27,3.70
2011,04,19,05,28,3.70
2011,04,19,05,29,3.70
2011,04,19,05,30,3.70
2011,04,19,05,31,3.70
2011,04,19,05,32,3.70
2011,04,19,05,33,3.70
2011,04,19,05,34,3.70
2011,04,19,05,35,3.60
2011,04,19,05,36,3.60
2011,04,19,05,37,3.60
2011,04,19,05,38,3.60
2011,04,19,05,39,3.50
2011,04,19,05,40,3.50
2011,04,19,05,41,3.40
2011,04,19,05,42,3.40
2011,04,19,05,43,3.40
2011,04,19,05,44,3.40
2011,04,19,05,45,3.30
2011,04,19,05,46,3.30
2011,04,19,05,47,3.30
2011,04,19,05,48,3.30
2011,04,19,05,49,3.30
2011,04,19,05,50,3.30
2011,04,19,05,51,3.30
2011,04,19,05,52,3.30
2011,04,19,05,53,3.30
2011,04,19,05,54,3.40
2011,04,19,05,55,3.40
2011,04,19,05,56,3.40
2011,04,19,05,57,3.40
2011,04,19,05,58,3.40
2011,04,19,05,59,3.40
2011,04,19,06,00,3.40
2011,04,19,06,01,3.30
2011,04,19,06,02,3.30
2011,04,19,06,03,3.30
2011,04,19,06,04,3.30
2011,04,19,06,05,3.30
2011,04,19,06,06,3.30
2011,04,19,06,07,3.40
2011,04,19,06,08,3.40
2011,04,19,06,09,3.40
2011,04,19,06,10,3.50
2011,04,19,06,11,3.50
2011,04,19,06,12,3.60
2011,04,19,06,13,3.60
2011,04,19,06,14,3.60
2011,04,19,06,15,3.70
2011,04,19,06,16,3.70
2011,04,19,06,17,3.70
2011,04,19,06,18,3.70
2011,04,19,06,19,3.80
2011,04,19,06,20,3.80
2011,04,19,06,21,3.80
2011,04,19,06,22,3.80
2011,04,19,06,23,3.80
2011,04,19,06,24,3.80
2011,04,19,06,25,3.80
2011,04,19,06,26,3.80
2011,04,19,06,27,3.80
2011,04,19,06,28,3.80
2011,04,19,06,29,3.90
2011,04,19,06,30,3.90
2011,04,19,06,31,3.90
2011,04,19,06,32,3.90
2011,04,19,06,33,4.00
2011,04,19,06,34,4.00
2011,04,19,06,35,4.00
2011,04,19,06,36,4.00
2011,04,19,06,37,4.10
2011,04,19,06,38,4.10
2011,04,19,06,39,4.10
2011,04,19,06,40,4.10
2011,04,19,06,41,4.10
2011,04,19,06,42,4.10
2011,04,19,06,43,4.10
2011,04,19,06,44,4.10
2011,04,19,06,45,4.20
2011,04,19,06,46,4.20
2011,04,19,06,47,4.20
2011,04,19,06,48,4.20
2011,04,19,06,49,4.20
2011,04,19,06,50,4.20
2011,04,19,06,51,4.20
2011,04,19,06,52,4.20
2011,04,19,06,53,4.20
2011,04,19,06,54,4.20
2011,04,19,06,55,4.20
2011,04,19,06,56,4.20
2011,04,19,06,57,4.20
2011,04,19,06,58,4.20
2011,04,19,06,59,4.20
2011,04,19,07,00,4.30
2011,04,19,07,01,4.30
2011,04,19,07,02,4.30
2011,04,19,07,03,4.30
2011,04,19,07,04,4.30
2011,04,19,07,05,4.30
2011,04,19,07,06,4.40
2011,04,19,07,07,4.40
2011,04,19,07,08,4.40
2011,04,19,07,09,4.40
2011,04,19,07,10,4.40
2011,04,19,07,11,4.50
2011,04,19,07,12,4.50
2011,04,19,07,13,4.60
2011,04,19,07,14,4.60
2011,04,19,07,15,4.60
2011,04,19,07,16,4.60
2011,04,19,07,17,4.60
2011,04,19,07,18,4.60
2011,04,19,07,19,4.70
2011,04,19,07,20,4.70
2011,04,19,07,21,4.70
2011,04,19,07,22,4.70
2011,04,19,07,23,4.70
2011,04,19,07,24,4.70
2011,04,19,07,25,4.70
2011,04,19,07,26,4.70
2011,04,19,07,27,4.70
2011,04,19,07,28,4.70
2011,04,19,07,29,4.70
2011,04,19,07,30,4.70
2011,04,19,07,31,4.70
2011,04,19,07,32,4.70
2011,04,19,07,33,4.70
2011,04,19,07,34,4.70
2011,04,19,07,35,4.70
2011,04,19,07,36,4.70
2011,04,19,07,37,4.70
2011,04,19,07,38,4.70
2011,04,19,07,39,4.70
2011,04,19,07,40,4.70
2011,04,19,07,41,4.80
2011,04,19,07,42,4.70
2011,04,19,07,43,4.70
2011,04,19,07,44,4.80
2011,04,19,07,45,4.80
2011,04,19,07,46,4.80
2011,04,19,07,47,4.80
2011,04,19,07,48,4.80
2011,04,19,07,49,4.80
2011,04,19,07,50,4.80
2011,04,19,07,51,4.80
2011,04,19,07,52,4.80
2011,04,19,07,53,4.80
2011,04,19,07,54,4.80
2011,04,19,07,55,4.80
2011,04,19,07,56,4.80
2011,04,19,07,57,4.80
2011,04,19,07,58,4.80
2011,04,19,07,59,4.80
2011,04,19,08,00,4.80
2011,04,19,08,01,4.80
2011,04,19,08,02,4.80
2011,04,19,08,03,4.80
2011,04,19,08,04,4.80
2011,04,19,08,05,4.80
2011,04,19,08,06,4.80
2011,04,19,08,07,4.80
2011,04,19,08,08,4.90
2011,04,19,08,09,4.90
2011,04,19,08,10,4.90
2011,04,19,08,11,5.00
2011,04,19,08,12,5.00
2011,04,19,08,13,5.10
2011,04,19,08,14,5.20
2011,04,19,08,15,5.20
2011,04,19,08,16,5.30
2011,04,19,08,17,5.30
2011,04,19,08,18,5.40
2011,04,19,08,19,5.40
2011,04,19,08,20,5.50
2011,04,19,08,21,5.60
2011,04,19,08,22,5.60
2011,04,19,08,23,5.70
2011,04,19,08,24,5.70
2011,04,19,08,25,5.80
2011,04,19,08,26,5.80
2011,04,19,08,27,5.80
2011,04,19,08,28,5.90
2011,04,19,08,29,5.90
2011,04,19,08,30,6.00
2011,04,19,08,31,6.00
2011,04,19,08,32,6.00
2011,04,19,08,33,6.10
2011,04,19,08,34,6.10
2011,04,19,08,35,6.10
2011,04,19,08,36,6.10
2011,04,19,08,37,6.10
2011,04,19,08,38,6.10
2011,04,19,08,39,6.10
2011,04,19,08,40,6.10
2011,04,19,08,41,6.20
2011,04,19,08,42,6.20
2011,04,19,08,43,6.20
2011,04,19,08,44,6.30
2011,04,19,08,45,6.30
2011,04,19,08,46,6.30
2011,04,19,08,47,6.30
2011,04,19,08,48,6.40
2011,04,19,08,49,6.40
2011,04,19,08,50,6.40
2011,04,19,08,51,6.40
2011,04,19,08,52,6.40
2011,04,19,08,53,6.40
2011,04,19,08,54,6.40
2011,04,19,08,55,6.40
2011,04,19,08,56,6.40
2011,04,19,08,57,6.50
2011,04,19,08,58,6.50
2011,04,19,08,59,6.50
2011,04,19,09,00,6.50
2011,04,19,09,01,6.60
2011,04,19,09,02,6.60
2011,04,19,09,03,6.60
2011,04,19,09,04,6.60
2011,04,19,09,05,6.70
2011,04,19,09,06,6.70
2011,04,19,09,07,6.70
2011,04,19,09,08,6.70
2011,04,19,09,09,6.70
2011,04,19,09,10,6.80
2011,04,19,09,11,6.80
2011,04,19,09,12,6.80
2011,04,19,09,13,6.80
2011,04,19,09,14,6.80
2011,04,19,09,15,6.80
2011,04,19,09,16,6.80
2011,04,19,09,17,6.80
2011,04,19,09,18,6.80
2011,04,19,09,19,6.80
2011,04,19,09,20,6.80
2011,04,19,09,21,6.80
2011,04,19,09,22,6.80
2011,04,19,09,23,6.80
2011,04,19,09,24,6.80
2011,04,19,09,25,6.90
2011,04,19,09,26,6.90
2011,04,19,09,27,6.90
2011,04,19,09,28,6.90
2011,04,19,09,29,7.00
2011,04,19,09,30,7.00
2011,04,19,09,31,7.10
2011,04,19,09,32,7.10
2011,04,19,09,33,7.20
2011,04,19,09,34,7.20
2011,04,19,09,35,7.20
2011,04,19,09,36,7.20
2011,04,19,09,37,7.30
2011,04,19,09,38,7.30
2011,04,19,09,39,7.20
2011,04,19,09,40,7.20
2011,04,19,09,41,7.20
2011,04,19,09,42,7.20
2011,04,19,09,43,7.20
2011,04,19,09,44,7.20
2011,04,19,09,45,7.20
2011,04,19,09,46,7.20
2011,04,19,09,47,7.10
2011,04,19,09,48,7.10
2011,04,19,09,49,7.10
2011,04,19,09,50,7.10
2011,04,19,09,51,7.10
2011,04,19,09,52,7.10
2011,04,19,09,53,7.10
2011,04,19,09,54,7.10
2011,04,19,09,55,7.10
2011,04,19,09,56,7.00
2011,04,19,09,57,7.00
2011,04,19,09,58,7.00
2011,04,19,09,59,7.00
2011,04,19,10,00,7.00
2011,04,19,10,01,7.00
2011,04,19,10,02,7.00
2011,04,19,10,03,7.10
2011,04,19,10,04,7.10
2011,04,19,10,05,7.10
2011,04,19,10,06,7.10
2011,04,19,10,07,7.10
2011,04,19,10,08,7.20
2011,04,19,10,09,7.20
2011,04,19,10,10,7.30
2011,04,19,10,11,7.30
2011,04,19,10,12,7.40
2011,04,19,10,13,7.50
2011,04,19,10,14,7.50
2011,04,19,10,15,7.60
2011,04,19,10,16,7.70
2011,04,19,10,17,7.70
2011,04,19,10,18,7.80
2011,04,19,10,19,7.80
2011,04,19,10,20,7.80
2011,04,19,10,21,7.80
2011,04,19,10,22,7.80
2011,04,19,10,23,7.80
2011,04,19,10,24,7.70
2011,04,19,10,25,7.60
2011,04,19,10,26,7.50
2011,04,19,10,27,7.50
2011,04,19,10,28,7.40
2011,04,19,10,29,7.40
2011,04,19,10,30,7.40
2011,04,19,10,31,7.40
2011,04,19,10,32,7.40
2011,04,19,10,33,7.40
2011,04,19,10,34,7.40
2011,04,19,10,35,7.40
2011,04,19,10,36,7.40
2011,04,19,10,37,7.40
2011,04,19,10,38,7.40
2011,04,19,10,39,7.40
2011,04,19,10,40,7.40
2011,04,19,10,41,7.40
2011,04,19,10,42,7.40
2011,04,19,10,43,7.40
2011,04,19,10,44,7.40
2011,04,19,10,45,7.40
2011,04,19,10,46,7.40
2011,04,19,10,47,7.40
2011,04,19,10,48,7.40
2011,04,19,10,49,7.40
2011,04,19,10,50,7.40
2011,04,19,10,51,7.40
2011,04,19,10,52,7.40
2011,04,19,10,53,7.50
2011,04,19,10,54,7.50
2011,04,19,10,55,7.60
2011,04,19,10,56,7.70
2011,04,19,10,57,7.80
2011,04,19,10,58,7.80
2011,04,19,10,59,7.80
2011,04,19,11,00,7.90
2011,04,19,11,01,7.90
2011,04,19,11,02,7.90
2011,04,19,11,03,7.90
2011,04,19,11,04,7.90
2011,04,19,11,05,8.00
2011,04,19,11,06,8.00
2011,04,19,11,07,8.10
2011,04,19,11,08,8.10
2011,04,19,11,09,8.10
2011,04,19,11,10,8.10
2011,04,19,11,11,8.00
2011,04,19,11,12,8.00
2011,04,19,11,13,8.00
2011,04,19,11,14,7.90
2011,04,19,11,15,7.90
2011,04,19,11,16,7.80
2011,04,19,11,17,7.80
2011,04,19,11,18,7.70
2011,04,19,11,19,7.70
2011,04,19,11,20,7.70
2011,04,19,11,21,7.70
2011,04,19,11,22,7.70
2011,04,19,11,23,7.70
2011,04,19,11,24,7.70
2011,04,19,11,25,7.70
2011,04,19,11,26,7.70
2011,04,19,11,27,7.70
2011,04,19,11,28,7.70
2011,04,19,11,29,7.70
2011,04,19,11,30,7.70
2011,04,19,11,31,7.70
2011,04,19,11,32,7.80
2011,04,19,11,33,7.80
2011,04,19,11,34,7.80
2011,04,19,11,35,7.80
2011,04,19,11,36,7.80
2011,04,19,11,37,7.80
2011,04,19,11,38,7.80
2011,04,19,11,39,7.80
2011,04,19,11,40,7.70
2011,04,19,11,41,7.70
2011,04,19,11,42,7.70
2011,04,19,11,43,7.70
2011,04,19,11,44,7.70
2011,04,19,11,45,7.70
2011,04,19,11,46,7.70
2011,04,19,11,47,7.70
2011,04,19,11,48,7.70
2011,04,19,11,49,7.70
2011,04,19,11,50,7.70
2011,04,19,11,51,7.70
2011,04,19,11,52,7.70
2011,04,19,11,53,7.70
2011,04,19,11,54,7.70
2011,04,19,11,55,7.70
2011,04,19,11,56,7.60
2011,04,19,11,57,7.60
2011,04,19,11,58,7.60
2011,04,19,11,59,7.50
2011,04,19,12,00,7.50
2011,04,19,12,01,7.40
2011,04,19,12,02,7.40
2011,04,19,12,03,7.40
2011,04,19,12,04,7.40
2011,04,19,12,05,7.40
2011,04,19,12,06,7.40
2011,04,19,12,07,7.40
2011,04,19,12,08,7.30
2011,04,19,12,09,7.30
2011,04,19,12,10,7.30
2011,04,19,12,11,7.30
2011,04,19,12,12,7.30
2011,04,19,12,13,7.30
2011,04,19,12,14,7.30
2011,04,19,12,15,7.30
2011,04,19,12,16,7.20
2011,04,19,12,17,7.20
2011,04,19,12,18,7.20
2011,04,19,12,19,7.20
2011,04,19,12,20,7.20
2011,04,19,12,21,7.30
2011,04,19,12,22,7.30
2011,04,19,12,23,7.40
2011,04,19,12,24,7.50
2011,04,19,12,25,7.60
2011,04,19,12,26,7.70
2011,04,19,12,27,7.70
2011,04,19,12,28,7.70
2011,04,19,12,29,7.70
2011,04,19,12,30,7.70
2011,04,19,12,31,7.60
2011,04,19,12,32,7.60
2011,04,19,12,33,7.60
2011,04,19,12,34,7.50
2011,04,19,12,35,7.50
2011,04,19,12,36,7.50
2011,04,19,12,37,7.50
2011,04,19,12,38,7.50
2011,04,19,12,39,7.50
2011,04,19,12,40,7.50
2011,04,19,12,41,7.50
2011,04,19,12,42,7.50
2011,04,19,12,43,7.60
2011,04,19,12,44,7.50
2011,04,19,12,45,7.60
2011,04,19,12,46,7.60
2011,04,19,12,47,7.70
2011,04,19,12,48,7.70
2011,04,19,12,49,7.70
2011,04,19,12,50,7.70
2011,04,19,12,51,7.70
2011,04,19,12,52,7.60
2011,04,19,12,53,7.60
2011,04,19,12,54,7.60
2011,04,19,12,55,7.60
2011,04,19,12,56,7.60
2011,04,19,12,57,7.60
2011,04,19,12,58,7.60
2011,04,19,12,59,7.70
2011,04,19,13,00,7.70
2011,04,19,13,01,7.80
2011,04,19,13,02,7.80
2011,04,19,13,03,7.90
2011,04,19,13,04,8.00
2011,04,19,13,05,8.10
2011,04,19,13,06,8.20
2011,04,19,13,07,8.30
2011,04,19,13,08,8.30
2011,04,19,13,09,8.40
2011,04,19,13,10,8.50
2011,04,19,13,11,8.50
2011,04,19,13,12,8.50
2011,04,19,13,13,8.60
2011,04,19,13,14,8.60
2011,04,19,13,15,8.70
2011,04,19,13,16,8.80
2011,04,19,13,17,8.80
2011,04,19,13,18,8.90
2011,04,19,13,19,8.90
2011,04,19,13,20,8.90
2011,04,19,13,21,8.90
2011,04,19,13,22,8.90
2011,04,19,13,23,9.00
2011,04,19,13,24,9.10
2011,04,19,13,25,9.10
2011,04,19,13,26,9.10
2011,04,19,13,27,9.10
2011,04,19,13,28,9.00
2011,04,19,13,29,9.00
2011,04,19,13,30,9.00
2011,04,19,13,31,8.90
2011,04,19,13,32,8.90
2011,04,19,13,33,8.90
2011,04,19,13,34,8.90
2011,04,19,13,35,8.80
2011,04,19,13,36,8.80
2011,04,19,13,37,8.80
2011,04,19,13,38,8.80
2011,04,19,13,39,8.80
2011,04,19,13,40,8.80
2011,04,19,13,41,8.80
2011,04,19,13,42,8.80
2011,04,19,13,43,8.70
2011,04,19,13,44,8.70
2011,04,19,13,45,8.60
2011,04,19,13,46,8.50
2011,04,19,13,47,8.40
2011,04,19,13,48,8.30
2011,04,19,13,49,8.20
2011,04,19,13,50,8.20
2011,04,19,13,51,8.10
2011,04,19,13,52,8.10
2011,04,19,13,53,8.10
2011,04,19,13,54,8.10
2011,04,19,13,55,8.10
2011,04,19,13,56,8.00
2011,04,19,13,57,8.10
2011,04,19,13,58,8.10
2011,04,19,13,59,8.20
2011,04,19,14,00,8.30
2011,04,19,14,01,8.30
2011,04,19,14,02,8.40
2011,04,19,14,03,8.40
2011,04,19,14,04,8.40
2011,04,19,14,05,8.40
2011,04,19,14,06,8.40
2011,04,19,14,07,8.40
2011,04,19,14,08,8.40
2011,04,19,14,09,8.30
2011,04,19,14,10,8.30
2011,04,19,14,11,8.30
2011,04,19,14,12,8.30
2011,04,19,14,13,8.40
2011,04,19,14,14,8.40
2011,04,19,14,15,8.40
2011,04,19,14,16,8.40
2011,04,19,14,17,8.40
2011,04,19,14,18,8.40
2011,04,19,14,19,8.30
2011,04,19,14,20,8.30
2011,04,19,14,21,8.30
2011,04,19,14,22,8.30
2011,04,19,14,23,8.30
2011,04,19,14,24,8.30
2011,04,19,14,25,8.30
2011,04,19,14,26,8.30
2011,04,19,14,27,8.30
2011,04,19,14,28,8.30
2011,04,19,14,29,8.20
2011,04,19,14,30,8.20
2011,04,19,14,31,8.20
2011,04,19,14,32,8.20
2011,04,19,14,33,8.20
2011,04,19,14,34,8.20
2011,04,19,14,35,8.20
2011,04,19,14,36,8.10
2011,04,19,14,37,8.20
2011,04,19,14,38,8.10
2011,04,19,14,39,8.10
2011,04,19,14,40,8.10
2011,04,19,14,41,8.10
2011,04,19,14,42,8.00
2011,04,19,14,43,8.00
2011,04,19,14,44,7.90
2011,04,19,14,45,7.90
2011,04,19,14,46,7.80
2011,04,19,14,47,7.80
2011,04,19,14,48,7.80
2011,04,19,14,49,7.70
2011,04,19,14,50,7.70
2011,04,19,14,51,7.70
2011,04,19,14,52,7.70
2011,04,19,14,53,7.70
2011,04,19,14,54,7.70
2011,04,19,14,55,7.70
2011,04,19,14,56,7.60
2011,04,19,14,57,7.60
2011,04,19,14,58,7.60
2011,04,19,14,59,7.60
2011,04,19,15,00,7.60
2011,04,19,15,01,7.60
2011,04,19,15,02,7.50
2011,04,19,15,03,7.50
2011,04,19,15,04,7.60
2011,04,19,15,05,7.60
2011,04,19,15,06,7.50
2011,04,19,15,07,7.50
2011,04,19,15,08,7.40
2011,04,19,15,09,7.40
2011,04,19,15,10,7.30
2011,04,19,15,11,7.30
2011,04,19,15,12,7.30
2011,04,19,15,13,7.30
2011,04,19,15,14,7.20
2011,04,19,15,15,7.20
2011,04,19,15,16,7.20
2011,04,19,15,17,7.10
2011,04,19,15,18,7.20
2011,04,19,15,19,7.20
2011,04,19,15,20,7.20
2011,04,19,15,21,7.20
2011,04,19,15,22,7.20
2011,04,19,15,23,7.20
2011,04,19,15,24,7.20
2011,04,19,15,25,7.30
2011,04,19,15,26,7.30
2011,04,19,15,27,7.40
2011,04,19,15,28,7.40
2011,04,19,15,29,7.50
2011,04,19,15,30,7.50
2011,04,19,15,31,7.60
2011,04,19,15,32,7.60
2011,04,19,15,33,7.60
2011,04,19,15,34,7.60
2011,04,19,15,35,7.60
2011,04,19,15,36,7.60
2011,04,19,15,37,7.60
2011,04,19,15,38,7.60
2011,04,19,15,39,7.60
2011,04,19,15,40,7.60
2011,04,19,15,41,7.70
2011,04,19,15,42,7.70
2011,04,19,15,43,7.70
2011,04,19,15,44,7.70
2011,04,19,15,45,7.70
2011,04,19,15,46,7.70
2011,04,19,15,47,7.70
2011,04,19,15,48,7.70
2011,04,19,15,49,7.70
2011,04,19,15,50,7.70
2011,04,19,15,51,7.70
2011,04,19,15,52,7.70
2011,04,19,15,53,7.70
2011,04,19,15,54,7.70
2011,04,19,15,55,7.70
2011,04,19,15,56,7.70
2011,04,19,15,57,7.70
2011,04,19,15,58,7.70
2011,04,19,15,59,7.60
2011,04,19,16,00,7.60
2011,04,19,16,01,7.60
2011,04,19,16,02,7.60
2011,04,19,16,03,7.60
2011,04,19,16,04,7.60
2011,04,19,16,05,7.60
2011,04,19,16,06,7.60
2011,04,19,16,07,7.60
2011,04,19,16,08,7.60
2011,04,19,16,09,7.60
2011,04,19,16,10,7.60
2011,04,19,16,11,7.60
2011,04,19,16,12,7.60
2011,04,19,16,13,7.60
2011,04,19,16,14,7.60
2011,04,19,16,15,7.60
2011,04,19,16,16,7.50
2011,04,19,16,17,7.50
2011,04,19,16,18,7.50
2011,04,19,16,19,7.50
2011,04,19,16,20,7.50
2011,04,19,16,21,7.50
2011,04,19,16,22,7.50
2011,04,19,16,23,7.40
2011,04,19,16,24,7.40
2011,04,19,16,25,7.40
2011,04,19,16,26,7.40
2011,04,19,16,27,7.40
2011,04,19,16,28,7.40
2011,04,19,16,29,7.40
2011,04,19,16,30,7.30
2011,04,19,16,31,7.30
2011,04,19,16,32,7.30
2011,04,19,16,33,7.30
2011,04,19,16,34,7.30
2011,04,19,16,35,7.20
2011,04,19,16,36,7.20
2011,04,19,16,37,7.20
2011,04,19,16,38,7.20
2011,04,19,16,39,7.20
2011,04,19,16,40,7.20
2011,04,19,16,41,7.20
2011,04,19,16,42,7.20
2011,04,19,16,43,7.20
2011,04,19,16,44,7.20
2011,04,19,16,45,7.20
2011,04,19,16,46,7.30
2011,04,19,16,47,7.20
2011,04,19,16,48,7.20
2011,04,19,16,49,7.20
2011,04,19,16,50,7.20
2011,04,19,16,51,7.20
2011,04,19,16,52,7.20
2011,04,19,16,53,7.20
2011,04,19,16,54,7.30
2011,04,19,16,55,7.30
2011,04,19,16,56,7.30
2011,04,19,16,57,7.40
2011,04,19,16,58,7.40
2011,04,19,16,59,7.50
2011,04,19,17,00,7.50
2011,04,19,17,01,7.50
2011,04,19,17,02,7.50
2011,04,19,17,03,7.50
2011,04,19,17,04,7.50
2011,04,19,17,05,7.50
2011,04,19,17,06,7.50
2011,04,19,17,07,7.40
2011,04,19,17,08,7.40
2011,04,19,17,09,7.40
2011,04,19,17,10,7.40
2011,04,19,17,11,7.40
2011,04,19,17,12,7.40
2011,04,19,17,13,7.30
2011,04,19,17,14,7.30
2011,04,19,17,15,7.30
2011,04,19,17,16,7.30
2011,04,19,17,17,7.30
2011,04,19,17,18,7.30
2011,04,19,17,19,7.30
2011,04,19,17,20,7.30
2011,04,19,17,21,7.30
2011,04,19,17,22,7.30
2011,04,19,17,23,7.30
2011,04,19,17,24,7.30
2011,04,19,17,25,7.30
2011,04,19,17,26,7.30
2011,04,19,17,27,7.30
2011,04,19,17,28,7.30
2011,04,19,17,29,7.30
2011,04,19,17,30,7.30
2011,04,19,17,31,7.30
2011,04,19,17,32,7.30
2011,04,19,17,33,7.30
2011,04,19,17,34,7.30
2011,04,19,17,35,7.30
2011,04,19,17,36,7.30
2011,04,19,17,37,7.30
2011,04,19,17,38,7.40
2011,04,19,17,39,7.30
2011,04,19,17,40,7.30
2011,04,19,17,41,7.30
2011,04,19,17,42,7.30
2011,04,19,17,43,7.30
2011,04,19,17,44,7.30
2011,04,19,17,45,7.30
2011,04,19,17,46,7.30
2011,04,19,17,47,7.30
2011,04,19,17,48,7.30
2011,04,19,17,49,7.30
2011,04,19,17,50,7.30
2011,04,19,17,51,7.20
2011,04,19,17,52,7.20
2011,04,19,17,53,7.20
2011,04,19,17,54,7.20
2011,04,19,17,55,7.10
2011,04,19,17,56,7.10
2011,04,19,17,57,7.10
2011,04,19,17,58,7.10
2011,04,19,17,59,7.10
2011,04,19,18,00,7.10
2011,04,19,18,01,7.10
2011,04,19,18,02,7.10
2011,04,19,18,03,7.10
2011,04,19,18,04,7.10
2011,04,19,18,05,7.00
2011,04,19,18,06,7.10